Time,TemperatureF,DewpointF,PressureIn,WindDirection,WindDirectionDegrees,WindSpeedMPH,WindSpeedGustMPH,Humidity,HourlyPrecipIn,Conditions,Clouds,dailyrainin,SolarRadiationWatts/m^2,SoftwareType,DateUTC
2013-09-13 00:03:00,52.8,45.8,29.81,WSW,249,2.0,4.0,77,0.00,,,0.00,0,WeatherCatV1.21B27,2013-09-13 07:03:00,
2013-09-13 00:08:00,52.8,45.8,29.81,WSW,249,0.0,0.0,77,0.00,,,0.00,0,WeatherCatV1.21B27,2013-09-13 07:08:00,
2013-09-13 00:13:00,52.8,45.8,29.81,WSW,249,0.0,0.0,77,0.00,,,0.00,0,WeatherCatV1.21B27,2013-09-13 07:13:00,
2013-09-13 00:18:00,52.8,46.1,29.82,WSW,249,1.0,2.0,78,0.00,,,0.00,0,WeatherCatV1.21B27,2013-09-13 07:18:00,
2013-09-13 00:23:00,52.8,45.8,29.82,WSW,251,0.0,4.0,77,0.00,,,0.00,0,WeatherCatV1.21B27,2013-09-13 07:23:00,
2013-09-13 00:28:00,52.8,46.1,29.82,WSW,253,2.0,3.0,78,0.00,,,0.00,0,WeatherCatV1.21B27,2013-09-13 07:28:00,
2013-09-13 00:33:00,52.8,47.1,29.82,West,268,0.0,3.0,81,0.00,,,0.00,0,WeatherCatV1.21B27,2013-09-13 07:33:00,
2013-09-13 00:38:00,52.8,47.5,29.82,West,269,2.0,3.0,82,0.00,,,0.00,0,WeatherCatV1.21B27,2013-09-13 07:38:00,
2013-09-13 00:43:00,52.6,48.2,29.82,West,269,3.0,4.0,85,0.00,,,0.00,0,WeatherCatV1.21B27,2013-09-13 07:43:00,
2013-09-13 00:48:00,52.5,48.4,29.82,West,268,0.0,0.0,86,0.00,,,0.00,0,WeatherCatV1.21B27,2013-09-13 07:48:00,
2013-09-13 00:53:00,52.3,48.5,29.82,West,268,0.0,0.0,87,0.00,,,0.00,0,WeatherCatV1.21B27,2013-09-13 07:53:00,
2013-09-13 00:58:00,52.2,48.5,29.82,West,269,0.0,0.0,87,0.00,,,0.00,0,WeatherCatV1.21B27,2013-09-13 07:58:00,
2013-09-13 01:03:00,52.0,48.2,29.82,West,269,0.0,0.0,87,0.00,,,0.00,0,WeatherCatV1.21B27,2013-09-13 08:03:00,
2013-09-13 01:08:00,51.9,48.5,29.82,West,270,0.0,1.0,88,0.00,,,0.00,0,WeatherCatV1.21B27,2013-09-13 08:08:00,
2013-09-13 01:13:00,51.9,48.5,29.82,West,269,0.0,0.0,88,0.00,,,0.00,0,WeatherCatV1.21B27,2013-09-13 08:13:00,
2013-09-13 01:18:00,51.7,48.3,29.82,West,270,3.0,4.0,88,0.00,,,0.00,0,WeatherCatV1.21B27,2013-09-13 08:18:00,
2013-09-13 01:23:00,51.6,48.5,29.82,West,279,3.0,4.0,89,0.00,,,0.00,0,WeatherCatV1.21B27,2013-09-13 08:23:00,
2013-09-13 01:28:00,51.6,48.5,29.82,West,278,2.0,5.0,89,0.00,,,0.00,0,WeatherCatV1.21B27,2013-09-13 08:28:00,
2013-09-13 01:33:00,51.4,48.3,29.84,WNW,288,3.0,5.0,89,0.00,,,0.00,0,WeatherCatV1.21B27,2013-09-13 08:33:00,
2013-09-13 01:38:00,51.3,48.2,29.84,WNW,288,3.0,5.0,89,0.00,,,0.00,0,WeatherCatV1.21B27,2013-09-13 08:38:00,
2013-09-13 01:43:00,51.1,48.3,29.84,WNW,299,5.0,6.0,90,0.00,,,0.00,0,WeatherCatV1.21B27,2013-09-13 08:43:00,
2013-09-13 01:48:00,51.1,48.3,29.84,NW,312,3.0,6.0,90,0.00,,,0.00,0,WeatherCatV1.21B27,2013-09-13 08:48:00,
2013-09-13 01:53:00,51.0,48.5,29.84,WNW,293,3.0,6.0,91,0.00,,,0.00,0,WeatherCatV1.21B27,2013-09-13 08:53:00,
2013-09-13 01:58:00,51.0,48.5,29.84,WNW,297,5.0,6.0,91,0.00,,,0.00,0,WeatherCatV1.21B27,2013-09-13 08:58:00,
2013-09-13 02:03:00,51.0,48.5,29.83,WNW,293,4.0,5.0,91,0.00,,,0.00,0,WeatherCatV1.21B27,2013-09-13 09:03:00,
2013-09-13 02:08:00,51.1,48.9,29.83,WNW,301,3.0,5.0,92,0.00,,,0.00,0,WeatherCatV1.21B27,2013-09-13 09:08:00,
2013-09-13 02:13:00,51.1,48.9,29.83,WNW,302,3.0,4.0,92,0.00,,,0.00,0,WeatherCatV1.21B27,2013-09-13 09:13:00,
2013-09-13 02:18:00,51.1,48.9,29.83,WNW,293,4.0,5.0,92,0.00,,,0.00,0,WeatherCatV1.21B27,2013-09-13 09:18:00,
2013-09-13 02:23:00,51.3,49.0,29.83,WNW,293,5.0,5.0,92,0.00,,,0.00,0,WeatherCatV1.21B27,2013-09-13 09:23:00,
2013-09-13 02:28:00,51.3,49.0,29.83,WNW,297,5.0,5.0,92,0.00,,,0.00,0,WeatherCatV1.21B27,2013-09-13 09:28:00,
2013-09-13 02:33:00,51.4,49.2,29.83,WNW,297,3.0,5.0,92,0.00,,,0.00,0,WeatherCatV1.21B27,2013-09-13 09:33:00,
2013-09-13 02:38:00,51.4,49.2,29.83,WNW,293,3.0,4.0,92,0.00,,,0.00,0,WeatherCatV1.21B27,2013-09-13 09:38:00,
2013-09-13 02:43:00,51.4,49.4,29.83,WNW,288,4.0,5.0,93,0.00,,,0.00,0,WeatherCatV1.21B27,2013-09-13 09:43:00,
2013-09-13 02:48:00,51.4,49.4,29.83,West,279,4.0,4.0,93,0.00,,,0.00,0,WeatherCatV1.21B27,2013-09-13 09:48:00,
2013-09-13 02:53:00,51.4,49.4,29.83,WNW,288,4.0,5.0,93,0.00,,,0.00,0,WeatherCatV1.21B27,2013-09-13 09:53:00,
2013-09-13 02:58:00,51.4,49.4,29.83,WNW,293,4.0,5.0,93,0.00,,,0.00,0,WeatherCatV1.21B27,2013-09-13 09:58:00,
2013-09-13 03:03:00,51.4,49.4,29.83,WNW,293,3.0,4.0,93,0.00,,,0.00,0,WeatherCatV1.21B27,2013-09-13 10:03:00,
2013-09-13 03:08:00,51.4,49.4,29.83,WNW,297,3.0,4.0,93,0.00,,,0.00,0,WeatherCatV1.21B27,2013-09-13 10:08:00,
2013-09-13 03:13:00,51.4,49.4,29.83,West,279,3.0,4.0,93,0.00,,,0.00,0,WeatherCatV1.21B27,2013-09-13 10:13:00,
2013-09-13 03:18:00,51.4,49.4,29.80,WNW,283,2.0,3.0,93,0.00,,,0.00,0,WeatherCatV1.21B27,2013-09-13 10:18:00,
2013-09-13 03:23:00,51.4,49.4,29.80,WNW,283,0.0,3.0,93,0.00,,,0.00,0,WeatherCatV1.21B27,2013-09-13 10:23:00,
2013-09-13 03:28:00,51.4,49.4,29.80,WNW,283,2.0,4.0,93,0.00,,,0.00,0,WeatherCatV1.21B27,2013-09-13 10:28:00,
2013-09-13 03:33:00,51.4,49.4,29.79,WNW,283,4.0,4.0,93,0.00,,,0.00,0,WeatherCatV1.21B27,2013-09-13 10:33:00,
2013-09-13 03:38:00,51.4,49.4,29.79,WNW,293,3.0,5.0,93,0.00,,,0.00,0,WeatherCatV1.21B27,2013-09-13 10:38:00,
2013-09-13 03:43:00,51.4,49.4,29.79,WNW,288,4.0,5.0,93,0.00,,,0.00,0,WeatherCatV1.21B27,2013-09-13 10:43:00,
2013-09-13 03:48:00,51.3,49.3,29.79,WNW,293,4.0,4.0,93,0.00,,,0.00,0,WeatherCatV1.21B27,2013-09-13 10:48:00,
2013-09-13 03:53:00,51.3,49.3,29.79,WNW,288,4.0,6.0,93,0.00,,,0.00,0,WeatherCatV1.21B27,2013-09-13 10:53:00,
2013-09-13 03:58:00,51.3,49.3,29.79,WNW,283,4.0,4.0,93,0.00,,,0.00,0,WeatherCatV1.21B27,2013-09-13 10:58:00,
2013-09-13 04:03:00,51.1,49.2,29.78,WNW,283,3.0,4.0,93,0.00,,,0.00,0,WeatherCatV1.21B27,2013-09-13 11:03:00,
2013-09-13 04:08:00,51.1,49.2,29.78,WNW,283,2.0,5.0,93,0.00,,,0.00,0,WeatherCatV1.21B27,2013-09-13 11:08:00,
2013-09-13 04:13:00,51.0,49.0,29.78,WNW,283,3.0,4.0,93,0.00,,,0.00,0,WeatherCatV1.21B27,2013-09-13 11:13:00,
2013-09-13 04:18:00,51.0,49.0,29.79,WNW,283,3.0,6.0,93,0.00,,,0.00,0,WeatherCatV1.21B27,2013-09-13 11:18:00,
2013-09-13 04:23:00,51.0,49.0,29.79,WNW,288,4.0,5.0,93,0.00,,,0.00,0,WeatherCatV1.21B27,2013-09-13 11:23:00,
2013-09-13 04:28:00,51.0,49.0,29.79,WNW,298,3.0,5.0,93,0.00,,,0.00,0,WeatherCatV1.21B27,2013-09-13 11:28:00,
2013-09-13 04:33:00,50.8,48.8,29.80,WNW,300,3.0,5.0,93,0.00,,,0.00,0,WeatherCatV1.21B27,2013-09-13 11:33:00,
2013-09-13 04:38:00,50.7,48.8,29.80,WNW,293,5.0,5.0,93,0.00,,,0.00,0,WeatherCatV1.21B27,2013-09-13 11:38:00,
2013-09-13 04:43:00,50.7,48.8,29.80,WNW,283,2.0,4.0,93,0.00,,,0.00,0,WeatherCatV1.21B27,2013-09-13 11:43:00,
2013-09-13 04:48:00,50.5,48.5,29.80,WNW,283,3.0,4.0,93,0.00,,,0.00,0,WeatherCatV1.21B27,2013-09-13 11:48:00,
2013-09-13 04:53:00,50.7,48.8,29.80,West,276,3.0,5.0,93,0.00,,,0.00,0,WeatherCatV1.21B27,2013-09-13 11:53:00,
2013-09-13 04:58:00,50.5,48.5,29.80,West,278,3.0,4.0,93,0.00,,,0.01,0,WeatherCatV1.21B27,2013-09-13 11:58:00,
2013-09-13 05:03:00,50.5,48.5,29.79,West,278,3.0,4.0,93,0.00,,,0.01,0,WeatherCatV1.21B27,2013-09-13 12:03:00,
2013-09-13 05:08:00,50.5,48.5,29.79,West,278,3.0,3.0,93,0.00,,,0.01,0,WeatherCatV1.21B27,2013-09-13 12:08:00,
2013-09-13 05:13:00,50.5,48.5,29.79,West,278,2.0,3.0,93,0.00,,,0.01,0,WeatherCatV1.21B27,2013-09-13 12:13:00,
2013-09-13 05:18:00,50.5,48.5,29.79,West,278,5.0,5.0,93,0.00,,,0.01,0,WeatherCatV1.21B27,2013-09-13 12:18:00,
2013-09-13 05:23:00,50.7,48.8,29.79,WNW,288,6.0,6.0,93,0.00,,,0.01,0,WeatherCatV1.21B27,2013-09-13 12:23:00,
2013-09-13 05:28:00,50.7,48.8,29.79,WNW,283,4.0,7.0,93,0.00,,,0.01,0,WeatherCatV1.21B27,2013-09-13 12:28:00,
2013-09-13 05:33:00,50.7,48.8,29.79,WNW,301,3.0,6.0,93,0.00,,,0.01,0,WeatherCatV1.21B27,2013-09-13 12:33:00,
2013-09-13 05:38:00,50.5,48.5,29.79,WNW,288,3.0,4.0,93,0.00,,,0.01,0,WeatherCatV1.21B27,2013-09-13 12:38:00,
2013-09-13 05:43:00,50.5,48.5,29.79,WNW,293,3.0,5.0,93,0.00,,,0.01,0,WeatherCatV1.21B27,2013-09-13 12:43:00,
2013-09-13 05:48:00,50.5,48.5,29.79,WNW,288,4.0,5.0,93,0.00,,,0.01,0,WeatherCatV1.21B27,2013-09-13 12:48:00,
2013-09-13 05:53:00,50.7,48.8,29.79,WNW,288,2.0,3.0,93,0.00,,,0.01,0,WeatherCatV1.21B27,2013-09-13 12:53:00,
2013-09-13 05:58:00,50.7,48.8,29.79,WNW,283,3.0,5.0,93,0.00,,,0.01,0,WeatherCatV1.21B27,2013-09-13 12:58:00,
2013-09-13 06:03:00,50.7,48.8,29.79,West,270,4.0,5.0,93,0.00,,,0.01,0,WeatherCatV1.21B27,2013-09-13 13:03:00,
2013-09-13 06:08:00,50.5,48.5,29.79,WNW,283,5.0,5.0,93,0.00,,,0.01,0,WeatherCatV1.21B27,2013-09-13 13:08:00,
2013-09-13 06:13:00,50.7,48.8,29.79,West,278,6.0,6.0,93,0.00,,,0.01,0,WeatherCatV1.21B27,2013-09-13 13:13:00,
2013-09-13 06:18:00,50.7,49.0,29.82,WNW,288,5.0,5.0,94,0.00,,,0.01,0,WeatherCatV1.21B27,2013-09-13 13:18:00,
2013-09-13 06:23:00,50.7,49.0,29.82,WNW,293,3.0,6.0,94,0.00,,,0.01,0,WeatherCatV1.21B27,2013-09-13 13:23:00,
2013-09-13 06:28:00,50.7,49.0,29.82,WNW,283,3.0,4.0,94,0.00,,,0.01,0,WeatherCatV1.21B27,2013-09-13 13:28:00,
2013-09-13 06:34:00,50.8,49.1,29.82,WNW,303,3.0,5.0,94,0.00,,,0.01,0,WeatherCatV1.21B27,2013-09-13 13:34:00,
2013-09-13 06:39:00,50.8,49.1,29.82,WNW,297,3.0,6.0,94,0.00,,,0.01,0,WeatherCatV1.21B27,2013-09-13 13:39:00,
2013-09-13 06:44:00,50.8,49.1,29.83,NW,304,3.0,5.0,94,0.00,,,0.01,7,WeatherCatV1.21B27,2013-09-13 13:44:00,
2013-09-13 06:49:00,50.7,49.0,29.83,WNW,303,2.0,3.0,94,0.00,,,0.01,12,WeatherCatV1.21B27,2013-09-13 13:49:00,
2013-09-13 06:54:00,50.7,49.0,29.83,WNW,301,0.0,2.0,94,0.00,,,0.01,14,WeatherCatV1.21B27,2013-09-13 13:54:00,
2013-09-13 06:59:00,50.7,49.0,29.83,WNW,301,1.0,2.0,94,0.00,,,0.01,23,WeatherCatV1.21B27,2013-09-13 13:59:00,
2013-09-13 07:04:00,50.7,49.0,29.83,WNW,301,0.0,1.0,94,0.00,,,0.01,33,WeatherCatV1.21B27,2013-09-13 14:04:00,
2013-09-13 07:09:00,50.5,48.8,29.83,WNW,300,2.0,2.0,94,0.00,,,0.01,39,WeatherCatV1.21B27,2013-09-13 14:09:00,
2013-09-13 07:14:00,50.5,48.8,29.89,WNW,300,3.0,3.0,94,0.00,,,0.01,54,WeatherCatV1.21B27,2013-09-13 14:14:00,
2013-09-13 07:19:00,50.4,48.7,29.89,WNW,300,0.0,0.0,94,0.00,,,0.01,60,WeatherCatV1.21B27,2013-09-13 14:19:00,
2013-09-13 07:24:00,50.4,48.7,29.89,WNW,300,0.0,0.0,94,0.00,,,0.01,56,WeatherCatV1.21B27,2013-09-13 14:24:00,
2013-09-13 07:29:00,50.4,48.7,29.91,WNW,299,0.0,0.0,94,0.00,,,0.01,58,WeatherCatV1.21B27,2013-09-13 14:29:00,
2013-09-13 07:34:00,50.4,48.7,29.91,WNW,299,2.0,3.0,94,0.00,,,0.01,97,WeatherCatV1.21B27,2013-09-13 14:34:00,
2013-09-13 07:39:00,50.4,48.7,29.91,WNW,298,0.0,0.0,94,0.00,,,0.01,69,WeatherCatV1.21B27,2013-09-13 14:39:00,
2013-09-13 07:44:00,50.5,48.8,29.89,WNW,299,1.0,3.0,94,0.00,,,0.01,67,WeatherCatV1.21B27,2013-09-13 14:44:00,
2013-09-13 07:49:00,50.5,48.8,29.89,WNW,299,0.0,0.0,94,0.00,,,0.01,190,WeatherCatV1.21B27,2013-09-13 14:49:00,
2013-09-13 07:54:00,50.7,49.0,29.89,WNW,298,0.0,1.0,94,0.00,,,0.01,211,WeatherCatV1.21B27,2013-09-13 14:54:00,
2013-09-13 07:59:00,50.8,49.1,29.90,WNW,293,0.0,3.0,94,0.00,,,0.01,241,WeatherCatV1.21B27,2013-09-13 14:59:00,
2013-09-13 08:04:00,51.0,49.3,29.90,WNW,293,0.0,4.0,94,0.00,,,0.01,251,WeatherCatV1.21B27,2013-09-13 15:04:00,
2013-09-13 08:09:00,51.3,49.6,29.90,WNW,293,1.0,1.0,94,0.00,,,0.01,271,WeatherCatV1.21B27,2013-09-13 15:09:00,
2013-09-13 08:14:00,51.4,49.7,29.93,WNW,293,0.0,1.0,94,0.00,,,0.01,278,WeatherCatV1.21B27,2013-09-13 15:14:00,
2013-09-13 08:19:00,51.6,49.9,29.93,WNW,293,0.0,0.0,94,0.00,,,0.01,257,WeatherCatV1.21B27,2013-09-13 15:19:00,
2013-09-13 08:24:00,51.7,50.0,29.93,WNW,293,0.0,2.0,94,0.00,,,0.01,255,WeatherCatV1.21B27,2013-09-13 15:24:00,
2013-09-13 08:29:00,51.9,50.2,29.91,WNW,293,2.0,2.0,94,0.00,,,0.01,267,WeatherCatV1.21B27,2013-09-13 15:29:00,
2013-09-13 08:34:00,52.0,50.3,29.91,WNW,293,0.0,0.0,94,0.00,,,0.01,281,WeatherCatV1.21B27,2013-09-13 15:34:00,
2013-09-13 08:39:00,52.2,50.5,29.91,WNW,293,0.0,1.0,94,0.00,,,0.01,295,WeatherCatV1.21B27,2013-09-13 15:39:00,
2013-09-13 08:44:00,52.3,50.6,29.91,WNW,293,0.0,1.0,94,0.00,,,0.01,309,WeatherCatV1.21B27,2013-09-13 15:44:00,
2013-09-13 08:49:00,52.5,50.8,29.91,WNW,293,0.0,3.0,94,0.00,,,0.01,323,WeatherCatV1.21B27,2013-09-13 15:49:00,
2013-09-13 08:54:00,52.6,50.9,29.91,WNW,293,1.0,4.0,94,0.00,,,0.01,339,WeatherCatV1.21B27,2013-09-13 15:54:00,
2013-09-13 08:59:00,52.9,51.2,29.92,WNW,283,3.0,5.0,94,0.00,,,0.01,380,WeatherCatV1.21B27,2013-09-13 15:59:00,
2013-09-13 09:04:00,53.1,51.4,29.92,WNW,283,4.0,6.0,94,0.00,,,0.01,439,WeatherCatV1.21B27,2013-09-13 16:04:00,
2013-09-13 09:09:00,53.2,51.5,29.92,WNW,283,3.0,7.0,94,0.00,,,0.01,260,WeatherCatV1.21B27,2013-09-13 16:09:00,
2013-09-13 09:14:00,53.3,51.6,29.92,WNW,283,1.0,4.0,94,0.00,,,0.01,432,WeatherCatV1.21B27,2013-09-13 16:14:00,
2013-09-13 09:19:00,53.5,51.8,29.92,WNW,283,3.0,3.0,94,0.00,,,0.01,411,WeatherCatV1.21B27,2013-09-13 16:19:00,
2013-09-13 09:24:00,53.6,51.9,29.92,WNW,283,0.0,3.0,94,0.00,,,0.01,427,WeatherCatV1.21B27,2013-09-13 16:24:00,
2013-09-13 09:29:00,53.9,52.2,29.90,WNW,283,0.0,3.0,94,0.00,,,0.01,441,WeatherCatV1.21B27,2013-09-13 16:29:00,
2013-09-13 09:34:00,54.1,52.1,29.90,WNW,283,0.0,0.0,93,0.00,,,0.01,454,WeatherCatV1.21B27,2013-09-13 16:34:00,
2013-09-13 09:39:00,54.2,52.2,29.90,WNW,283,2.0,4.0,93,0.00,,,0.01,468,WeatherCatV1.21B27,2013-09-13 16:39:00,
2013-09-13 09:44:00,54.5,52.5,29.90,WNW,283,0.0,0.0,93,0.00,,,0.01,482,WeatherCatV1.21B27,2013-09-13 16:44:00,
2013-09-13 09:49:00,54.7,52.4,29.90,WNW,283,4.0,4.0,92,0.00,,,0.01,496,WeatherCatV1.21B27,2013-09-13 16:49:00,
2013-09-13 09:54:00,55.0,52.1,29.90,WNW,283,5.0,5.0,90,0.00,,,0.01,512,WeatherCatV1.21B27,2013-09-13 16:54:00,
2013-09-13 09:59:00,55.4,52.2,29.92,West,276,4.0,6.0,89,0.00,,,0.01,524,WeatherCatV1.21B27,2013-09-13 16:59:00,
2013-09-13 10:04:00,55.9,52.4,29.92,West,278,5.0,5.0,88,0.00,,,0.01,534,WeatherCatV1.21B27,2013-09-13 17:04:00,
2013-09-13 10:09:00,56.0,52.2,29.92,West,279,4.0,4.0,87,0.00,,,0.01,545,WeatherCatV1.21B27,2013-09-13 17:09:00,
2013-09-13 10:14:00,56.3,51.8,29.90,West,278,3.0,5.0,85,0.00,,,0.01,559,WeatherCatV1.21B27,2013-09-13 17:14:00,
2013-09-13 10:19:00,56.5,51.4,29.90,West,278,3.0,5.0,83,0.00,,,0.01,573,WeatherCatV1.21B27,2013-09-13 17:19:00,
2013-09-13 10:24:00,56.9,51.8,29.90,West,278,0.0,2.0,83,0.00,,,0.01,585,WeatherCatV1.21B27,2013-09-13 17:24:00,
2013-09-13 10:29:00,57.2,51.8,29.89,West,279,3.0,4.0,82,0.00,,,0.01,601,WeatherCatV1.21B27,2013-09-13 17:29:00,
2013-09-13 10:34:00,57.5,51.7,29.89,WNW,293,4.0,4.0,81,0.00,,,0.01,615,WeatherCatV1.21B27,2013-09-13 17:34:00,
2013-09-13 10:39:00,58.0,51.9,29.89,WNW,293,0.0,1.0,80,0.00,,,0.01,628,WeatherCatV1.21B27,2013-09-13 17:39:00,
2013-09-13 10:44:00,58.3,51.5,29.89,WNW,293,2.0,4.0,78,0.00,,,0.01,640,WeatherCatV1.21B27,2013-09-13 17:44:00,
2013-09-13 10:49:00,58.7,51.2,29.89,WNW,293,0.0,1.0,76,0.00,,,0.01,649,WeatherCatV1.21B27,2013-09-13 17:49:00,
2013-09-13 10:54:00,59.2,51.3,29.89,WNW,288,4.0,4.0,75,0.00,,,0.01,666,WeatherCatV1.21B27,2013-09-13 17:54:00,
2013-09-13 10:59:00,59.8,51.5,29.87,WNW,293,3.0,5.0,74,0.00,,,0.01,701,WeatherCatV1.21B27,2013-09-13 17:59:00,
2013-09-13 11:04:00,60.2,52.2,29.87,WNW,293,4.0,5.0,75,0.00,,,0.01,765,WeatherCatV1.21B27,2013-09-13 18:04:00,
2013-09-13 11:09:00,60.5,52.2,29.87,WNW,293,3.0,7.0,74,0.00,,,0.01,788,WeatherCatV1.21B27,2013-09-13 18:09:00,
2013-09-13 11:14:00,60.9,52.9,29.84,West,261,3.0,6.0,75,0.00,,,0.01,824,WeatherCatV1.21B27,2013-09-13 18:14:00,
2013-09-13 11:19:00,61.0,52.7,29.84,NW,304,6.0,9.0,74,0.00,,,0.01,218,WeatherCatV1.21B27,2013-09-13 18:19:00,
2013-09-13 11:24:00,60.9,51.0,29.84,West,266,6.0,9.0,70,0.00,,,0.01,135,WeatherCatV1.21B27,2013-09-13 18:24:00,
2013-09-13 11:29:00,60.7,52.0,29.84,WNW,283,3.0,5.0,73,0.00,,,0.01,837,WeatherCatV1.21B27,2013-09-13 18:29:00,
2013-09-13 11:34:00,60.7,50.8,29.84,WNW,283,5.0,6.0,70,0.00,,,0.01,127,WeatherCatV1.21B27,2013-09-13 18:34:00,
2013-09-13 11:39:00,60.5,50.7,29.84,WNW,293,4.0,6.0,70,0.00,,,0.01,183,WeatherCatV1.21B27,2013-09-13 18:39:00,
2013-09-13 11:44:00,60.4,50.2,29.86,WNW,293,0.0,4.0,69,0.00,,,0.01,236,WeatherCatV1.21B27,2013-09-13 18:44:00,
2013-09-13 11:49:00,60.4,50.2,29.86,WNW,293,3.0,6.0,69,0.00,,,0.01,258,WeatherCatV1.21B27,2013-09-13 18:49:00,
2013-09-13 11:54:00,60.5,49.9,29.86,NW,307,4.0,7.0,68,0.00,,,0.01,264,WeatherCatV1.21B27,2013-09-13 18:54:00,
2013-09-13 11:59:00,60.9,50.7,29.84,WNW,293,5.0,5.0,69,0.00,,,0.01,227,WeatherCatV1.21B27,2013-09-13 18:59:00,
2013-09-13 12:04:00,61.0,50.0,29.84,WNW,297,2.0,3.0,67,0.00,,,0.01,383,WeatherCatV1.21B27,2013-09-13 19:04:00,
2013-09-13 12:09:00,61.5,49.6,29.84,WNW,288,5.0,9.0,65,0.00,,,0.01,446,WeatherCatV1.21B27,2013-09-13 19:09:00,
2013-09-13 12:14:00,61.8,49.9,29.84,West,276,4.0,6.0,65,0.00,,,0.01,461,WeatherCatV1.21B27,2013-09-13 19:14:00,
2013-09-13 12:19:00,62.1,49.3,29.84,WNW,288,3.0,7.0,63,0.00,,,0.01,1007,WeatherCatV1.21B27,2013-09-13 19:19:00,
2013-09-13 12:24:00,62.4,48.3,29.84,NW,307,4.0,7.0,60,0.00,,,0.01,229,WeatherCatV1.21B27,2013-09-13 19:24:00,
2013-09-13 12:29:00,62.4,48.3,29.83,West,278,4.0,6.0,60,0.00,,,0.01,172,WeatherCatV1.21B27,2013-09-13 19:29:00,
2013-09-13 12:34:00,62.3,47.8,29.83,WNW,293,2.0,4.0,59,0.00,,,0.01,148,WeatherCatV1.21B27,2013-09-13 19:34:00,
2013-09-13 12:39:00,62.3,47.8,29.83,WNW,293,4.0,4.0,59,0.00,,,0.01,141,WeatherCatV1.21B27,2013-09-13 19:39:00,
2013-09-13 12:44:00,62.1,46.7,29.84,NW,310,5.0,7.0,57,0.00,,,0.01,149,WeatherCatV1.21B27,2013-09-13 19:44:00,
2013-09-13 12:49:00,62.0,46.1,29.84,WNW,293,4.0,8.0,56,0.00,,,0.01,156,WeatherCatV1.21B27,2013-09-13 19:49:00,
2013-09-13 12:54:00,62.0,46.1,29.84,WNW,303,3.0,6.0,56,0.00,,,0.01,158,WeatherCatV1.21B27,2013-09-13 19:54:00,
2013-09-13 12:59:00,62.0,46.6,29.83,NW,314,1.0,3.0,57,0.00,,,0.01,165,WeatherCatV1.21B27,2013-09-13 19:59:00,
2013-09-13 13:04:00,61.8,45.5,29.83,WNW,297,1.0,5.0,55,0.00,,,0.01,167,WeatherCatV1.21B27,2013-09-13 20:04:00,
2013-09-13 13:09:00,62.0,45.6,29.83,WNW,301,3.0,3.0,55,0.00,,,0.01,907,WeatherCatV1.21B27,2013-09-13 20:09:00,
2013-09-13 13:14:00,62.3,45.9,29.84,WNW,297,4.0,5.0,55,0.00,,,0.01,872,WeatherCatV1.21B27,2013-09-13 20:14:00,
2013-09-13 13:19:00,63.1,45.7,29.84,West,275,0.0,3.0,53,0.00,,,0.01,856,WeatherCatV1.21B27,2013-09-13 20:19:00,
2013-09-13 13:24:00,63.9,43.8,29.84,WNW,297,6.0,7.0,48,0.00,,,0.01,886,WeatherCatV1.21B27,2013-09-13 20:24:00,
2013-09-13 13:29:00,64.8,43.0,29.82,WNW,299,0.0,0.0,45,0.00,,,0.01,939,WeatherCatV1.21B27,2013-09-13 20:29:00,
2013-09-13 13:34:00,65.6,41.9,29.82,West,274,0.0,0.0,42,0.00,,,0.01,918,WeatherCatV1.21B27,2013-09-13 20:34:00,
2013-09-13 13:39:00,66.9,43.7,29.82,South,178,0.0,5.0,43,0.00,,,0.01,988,WeatherCatV1.21B27,2013-09-13 20:39:00,
2013-09-13 13:44:00,68.8,43.5,29.78,West,265,1.0,4.0,40,0.00,,,0.01,1009,WeatherCatV1.21B27,2013-09-13 20:44:00,
2013-09-13 13:49:00,69.8,42.3,29.78,SSW,195,0.0,5.0,37,0.00,,,0.01,1023,WeatherCatV1.21B27,2013-09-13 20:49:00,
2013-09-13 13:54:00,71.3,43.0,29.78,SSW,192,6.0,7.0,36,0.00,,,0.01,926,WeatherCatV1.21B27,2013-09-13 20:54:00,
2013-09-13 13:59:00,73.0,38.8,29.75,NNE,21,3.0,6.0,29,0.00,,,0.01,958,WeatherCatV1.21B27,2013-09-13 20:59:00,
2013-09-13 14:04:00,73.2,40.7,29.75,North,352,1.0,1.0,31,0.00,,,0.01,962,WeatherCatV1.21B27,2013-09-13 21:04:00,
2013-09-13 14:09:00,73.5,42.6,29.75,WNW,299,10.0,13.0,33,0.00,,,0.01,951,WeatherCatV1.21B27,2013-09-13 21:09:00,
2013-09-13 14:14:00,73.2,41.6,29.74,WNW,293,3.0,4.0,32,0.00,,,0.01,981,WeatherCatV1.21B27,2013-09-13 21:14:00,
2013-09-13 14:19:00,73.7,41.2,29.74,East,86,0.0,1.0,31,0.00,,,0.01,547,WeatherCatV1.21B27,2013-09-13 21:19:00,
2013-09-13 14:24:00,73.7,41.2,29.74,West,269,9.0,10.0,31,0.00,,,0.01,220,WeatherCatV1.21B27,2013-09-13 21:24:00,
2013-09-13 14:29:00,72.3,40.8,29.75,WSW,250,2.0,6.0,32,0.00,,,0.01,206,WeatherCatV1.21B27,2013-09-13 21:29:00,
2013-09-13 14:34:00,71.5,40.9,29.75,WNW,301,6.0,10.0,33,0.00,,,0.01,243,WeatherCatV1.21B27,2013-09-13 21:34:00,
2013-09-13 14:39:00,70.3,40.6,29.75,NW,305,6.0,10.0,34,0.00,,,0.01,628,WeatherCatV1.21B27,2013-09-13 21:39:00,
2013-09-13 14:44:00,69.8,42.3,29.76,WSW,257,1.0,6.0,37,0.00,,,0.01,322,WeatherCatV1.21B27,2013-09-13 21:44:00,
2013-09-13 14:49:00,69.8,40.9,29.76,WNW,283,2.0,3.0,35,0.00,,,0.01,584,WeatherCatV1.21B27,2013-09-13 21:49:00,
2013-09-13 14:54:00,69.8,38.6,29.76,NNW,341,3.0,11.0,32,0.00,,,0.01,499,WeatherCatV1.21B27,2013-09-13 21:54:00,
2013-09-13 14:59:00,69.4,39.0,29.76,WNW,293,4.0,10.0,33,0.00,,,0.01,369,WeatherCatV1.21B27,2013-09-13 21:59:00,
2013-09-13 15:04:00,69.1,41.0,29.76,WNW,303,1.0,10.0,36,0.00,,,0.01,512,WeatherCatV1.21B27,2013-09-13 22:04:00,
2013-09-13 15:09:00,68.9,40.1,29.76,NW,317,4.0,6.0,35,0.00,,,0.01,306,WeatherCatV1.21B27,2013-09-13 22:09:00,
2013-09-13 15:14:00,68.6,41.3,29.75,WNW,288,2.0,8.0,37,0.00,,,0.01,248,WeatherCatV1.21B27,2013-09-13 22:14:00,
2013-09-13 15:19:00,68.4,41.8,29.75,West,276,0.0,7.0,38,0.00,,,0.01,158,WeatherCatV1.21B27,2013-09-13 22:19:00,
2013-09-13 15:24:00,68.1,40.1,29.75,WNW,298,5.0,6.0,36,0.00,,,0.01,113,WeatherCatV1.21B27,2013-09-13 22:24:00,
2013-09-13 15:29:00,67.6,41.1,29.77,WSW,255,6.0,9.0,38,0.00,,,0.01,116,WeatherCatV1.21B27,2013-09-13 22:29:00,
2013-09-13 15:34:00,66.9,42.4,29.77,WNW,300,6.0,10.0,41,0.00,,,0.01,176,WeatherCatV1.21B27,2013-09-13 22:34:00,
2013-09-13 15:39:00,66.3,47.6,29.77,West,278,3.0,7.0,51,0.00,,,0.01,352,WeatherCatV1.21B27,2013-09-13 22:39:00,
2013-09-13 15:44:00,65.8,47.7,29.77,West,268,3.0,7.0,52,0.00,,,0.01,599,WeatherCatV1.21B27,2013-09-13 22:44:00,
2013-09-13 15:49:00,65.5,44.7,29.77,NW,305,6.0,7.0,47,0.00,,,0.01,301,WeatherCatV1.21B27,2013-09-13 22:49:00,
2013-09-13 15:54:00,65.3,45.1,29.77,WSW,255,4.0,7.0,48,0.00,,,0.01,272,WeatherCatV1.21B27,2013-09-13 22:54:00,
2013-09-13 15:59:00,65.3,46.7,29.77,WNW,301,6.0,9.0,51,0.00,,,0.01,403,WeatherCatV1.21B27,2013-09-13 22:59:00,
2013-09-13 16:04:00,65.3,45.6,29.77,NW,310,5.0,6.0,49,0.00,,,0.01,621,WeatherCatV1.21B27,2013-09-13 23:04:00,
2013-09-13 16:09:00,65.6,43.7,29.77,WSW,258,6.0,10.0,45,0.00,,,0.01,221,WeatherCatV1.21B27,2013-09-13 23:09:00,
2013-09-13 16:14:00,65.6,43.1,29.78,NW,307,6.0,10.0,44,0.00,,,0.01,199,WeatherCatV1.21B27,2013-09-13 23:14:00,
2013-09-13 16:19:00,65.5,44.2,29.78,West,275,6.0,9.0,46,0.00,,,0.01,241,WeatherCatV1.21B27,2013-09-13 23:19:00,
2013-09-13 16:24:00,65.3,45.6,29.78,NW,307,4.0,7.0,49,0.00,,,0.01,209,WeatherCatV1.21B27,2013-09-13 23:24:00,
2013-09-13 16:29:00,65.3,44.0,29.78,WNW,301,2.0,5.0,46,0.00,,,0.01,162,WeatherCatV1.21B27,2013-09-13 23:29:00,
2013-09-13 16:34:00,65.2,43.3,29.78,WNW,283,3.0,6.0,45,0.00,,,0.01,148,WeatherCatV1.21B27,2013-09-13 23:34:00,
2013-09-13 16:39:00,65.0,44.8,29.78,WNW,288,6.0,8.0,48,0.00,,,0.01,146,WeatherCatV1.21B27,2013-09-13 23:39:00,
2013-09-13 16:44:00,64.7,44.5,29.78,West,268,6.0,9.0,48,0.00,,,0.01,134,WeatherCatV1.21B27,2013-09-13 23:44:00,
2013-09-13 16:49:00,64.5,43.8,29.78,WNW,283,6.0,9.0,47,0.00,,,0.01,118,WeatherCatV1.21B27,2013-09-13 23:49:00,
2013-09-13 16:54:00,64.2,43.5,29.78,West,262,9.0,10.0,47,0.00,,,0.01,90,WeatherCatV1.21B27,2013-09-13 23:54:00,
2013-09-13 16:59:00,64.0,42.8,29.80,NW,306,4.0,9.0,46,0.00,,,0.01,77,WeatherCatV1.21B27,2013-09-13 23:59:00,
2013-09-13 17:05:00,63.9,43.3,29.80,WNW,293,5.0,10.0,47,0.00,,,0.01,76,WeatherCatV1.21B27,2013-09-14 00:05:00,
2013-09-13 17:10:00,63.7,43.6,29.80,WNW,283,5.0,6.0,48,0.00,,,0.01,86,WeatherCatV1.21B27,2013-09-14 00:10:00,
2013-09-13 17:15:00,63.5,43.5,29.78,WNW,293,5.0,9.0,48,0.00,,,0.01,88,WeatherCatV1.21B27,2013-09-14 00:15:00,
2013-09-13 17:20:00,63.4,43.4,29.78,WNW,299,6.0,6.0,48,0.00,,,0.01,84,WeatherCatV1.21B27,2013-09-14 00:20:00,
2013-09-13 17:25:00,63.4,43.4,29.78,WNW,302,8.0,9.0,48,0.00,,,0.01,81,WeatherCatV1.21B27,2013-09-14 00:25:00,
2013-09-13 17:30:00,63.2,43.2,29.78,NW,310,10.0,11.0,48,0.00,,,0.01,79,WeatherCatV1.21B27,2013-09-14 00:30:00,
2013-09-13 17:35:00,63.2,42.6,29.78,WNW,283,7.0,11.0,47,0.00,,,0.01,77,WeatherCatV1.21B27,2013-09-14 00:35:00,
2013-09-13 17:40:00,63.2,43.2,29.78,WNW,288,3.0,6.0,48,0.00,,,0.01,74,WeatherCatV1.21B27,2013-09-14 00:40:00,
2013-09-13 17:45:00,63.1,43.6,29.78,West,272,4.0,9.0,49,0.00,,,0.01,65,WeatherCatV1.21B27,2013-09-14 00:45:00,
2013-09-13 17:50:00,62.9,43.4,29.78,WNW,293,7.0,9.0,49,0.00,,,0.01,54,WeatherCatV1.21B27,2013-09-14 00:50:00,
2013-09-13 17:55:00,62.9,44.0,29.78,WNW,293,6.0,9.0,50,0.00,,,0.01,44,WeatherCatV1.21B27,2013-09-14 00:55:00,
2013-09-13 18:00:00,62.7,44.3,29.78,WNW,293,4.0,7.0,51,0.00,,,0.01,39,WeatherCatV1.21B27,2013-09-14 01:00:00,
2013-09-13 18:05:00,62.7,45.3,29.78,NW,309,5.0,6.0,53,0.00,,,0.01,39,WeatherCatV1.21B27,2013-09-14 01:05:00,
2013-09-13 18:10:00,62.6,45.7,29.78,West,278,4.0,6.0,54,0.00,,,0.01,39,WeatherCatV1.21B27,2013-09-14 01:10:00,
2013-09-13 18:15:00,62.4,46.0,29.79,WNW,293,7.0,11.0,55,0.00,,,0.01,42,WeatherCatV1.21B27,2013-09-14 01:15:00,
2013-09-13 18:20:00,62.3,45.9,29.79,WNW,293,7.0,11.0,55,0.00,,,0.01,39,WeatherCatV1.21B27,2013-09-14 01:20:00,
2013-09-13 18:25:00,62.1,46.7,29.79,West,276,6.0,10.0,57,0.00,,,0.01,32,WeatherCatV1.21B27,2013-09-14 01:25:00,
2013-09-13 18:30:00,62.0,46.6,29.80,WNW,301,9.0,12.0,57,0.00,,,0.01,32,WeatherCatV1.21B27,2013-09-14 01:30:00,
2013-09-13 18:35:00,61.8,46.9,29.80,WNW,293,11.0,11.0,58,0.00,,,0.01,28,WeatherCatV1.21B27,2013-09-14 01:35:00,
2013-09-13 18:40:00,61.6,46.2,29.80,WNW,297,13.0,15.0,57,0.00,,,0.01,26,WeatherCatV1.21B27,2013-09-14 01:40:00,
2013-09-13 18:45:00,61.6,46.7,29.80,WNW,288,7.0,10.0,58,0.00,,,0.01,23,WeatherCatV1.21B27,2013-09-14 01:45:00,
2013-09-13 18:50:00,61.5,47.0,29.80,West,266,9.0,10.0,59,0.00,,,0.01,18,WeatherCatV1.21B27,2013-09-14 01:50:00,
2013-09-13 18:55:00,61.3,47.3,29.80,WNW,283,4.0,10.0,60,0.00,,,0.01,21,WeatherCatV1.21B27,2013-09-14 01:55:00,
2013-09-13 19:00:00,61.2,47.6,29.80,West,261,7.0,9.0,61,0.00,,,0.01,18,WeatherCatV1.21B27,2013-09-14 02:00:00,
2013-09-13 19:05:00,60.9,47.4,29.80,WNW,283,5.0,9.0,61,0.00,,,0.01,7,WeatherCatV1.21B27,2013-09-14 02:05:00,
2013-09-13 19:10:00,60.7,47.6,29.80,WSW,246,3.0,5.0,62,0.00,,,0.01,0,WeatherCatV1.21B27,2013-09-14 02:10:00,
2013-09-13 19:15:00,60.5,48.3,29.79,WNW,283,3.0,10.0,64,0.00,,,0.01,0,WeatherCatV1.21B27,2013-09-14 02:15:00,
2013-09-13 19:20:00,60.4,48.6,29.79,NW,307,3.0,5.0,65,0.00,,,0.01,0,WeatherCatV1.21B27,2013-09-14 02:20:00,
2013-09-13 19:25:00,60.2,48.4,29.79,WNW,293,2.0,10.0,65,0.00,,,0.01,0,WeatherCatV1.21B27,2013-09-14 02:25:00,
2013-09-13 19:30:00,60.1,48.3,29.80,WNW,293,7.0,10.0,65,0.00,,,0.01,0,WeatherCatV1.21B27,2013-09-14 02:30:00,
2013-09-13 19:35:00,59.9,48.1,29.80,NW,313,7.0,9.0,65,0.00,,,0.01,0,WeatherCatV1.21B27,2013-09-14 02:35:00,
2013-09-13 19:40:00,59.9,48.5,29.80,NW,308,6.0,11.0,66,0.00,,,0.01,0,WeatherCatV1.21B27,2013-09-14 02:40:00,
2013-09-13 19:45:00,59.8,48.8,29.81,WNW,288,5.0,10.0,67,0.00,,,0.01,0,WeatherCatV1.21B27,2013-09-14 02:45:00,
2013-09-13 19:50:00,59.6,48.6,29.81,WNW,297,6.0,6.0,67,0.00,,,0.01,0,WeatherCatV1.21B27,2013-09-14 02:50:00,
2013-09-13 19:55:00,59.5,48.9,29.81,NW,306,4.0,6.0,68,0.00,,,0.01,0,WeatherCatV1.21B27,2013-09-14 02:55:00,
2013-09-13 20:00:00,59.3,48.7,29.81,WNW,300,3.0,5.0,68,0.00,,,0.01,0,WeatherCatV1.21B27,2013-09-14 03:00:00,
2013-09-13 20:05:00,59.3,49.1,29.81,WNW,300,0.0,0.0,69,0.00,,,0.01,0,WeatherCatV1.21B27,2013-09-14 03:05:00,
2013-09-13 20:10:00,59.2,49.0,29.81,WNW,300,0.0,2.0,69,0.00,,,0.01,0,WeatherCatV1.21B27,2013-09-14 03:10:00,
2013-09-13 20:15:00,59.2,49.0,29.79,WNW,300,0.0,0.0,69,0.00,,,0.01,0,WeatherCatV1.21B27,2013-09-14 03:15:00,
2013-09-13 20:20:00,59.0,48.8,29.79,WNW,300,3.0,3.0,69,0.00,,,0.01,0,WeatherCatV1.21B27,2013-09-14 03:20:00,
2013-09-13 20:25:00,59.0,48.8,29.79,WNW,299,3.0,3.0,69,0.00,,,0.01,0,WeatherCatV1.21B27,2013-09-14 03:25:00,
2013-09-13 20:30:00,58.9,48.8,29.80,WNW,298,3.0,7.0,69,0.00,,,0.01,0,WeatherCatV1.21B27,2013-09-14 03:30:00,
2013-09-13 20:35:00,58.7,48.5,29.80,WNW,293,5.0,6.0,69,0.00,,,0.01,0,WeatherCatV1.21B27,2013-09-14 03:35:00,
2013-09-13 20:40:00,58.6,48.5,29.80,NW,314,6.0,7.0,69,0.00,,,0.01,0,WeatherCatV1.21B27,2013-09-14 03:40:00,
2013-09-13 20:45:00,58.4,48.3,29.82,WNW,293,5.0,9.0,69,0.00,,,0.01,0,WeatherCatV1.21B27,2013-09-14 03:45:00,
2013-09-13 20:50:00,58.4,48.3,29.82,WNW,293,5.0,5.0,69,0.00,,,0.01,0,WeatherCatV1.21B27,2013-09-14 03:50:00,
2013-09-13 20:55:00,58.3,48.2,29.82,WNW,283,2.0,4.0,69,0.00,,,0.01,0,WeatherCatV1.21B27,2013-09-14 03:55:00,
2013-09-13 21:00:00,58.1,48.0,29.81,WNW,288,3.0,4.0,69,0.00,,,0.01,0,WeatherCatV1.21B27,2013-09-14 04:00:00,
2013-09-13 21:01:00,58.1,48.0,29.81,WNW,288,3.0,4.0,69,0.00,,,0.01,0,WeatherCatV1.21B27,2013-09-14 04:01:00,
2013-09-13 21:04:00,58.1,48.4,29.81,WNW,288,2.0,4.0,70,0.00,,,0.01,0,WeatherCatV1.21B27,2013-09-14 04:04:00,
2013-09-13 21:05:00,58.1,48.4,29.81,WNW,288,3.0,4.0,70,0.00,,,0.01,0,WeatherCatV1.21B27,2013-09-14 04:05:00,
2013-09-13 21:09:00,58.0,48.7,29.81,WNW,288,2.0,3.0,71,0.00,,,0.01,0,WeatherCatV1.21B27,2013-09-14 04:09:00,
2013-09-13 21:14:00,58.0,49.0,29.79,WNW,288,4.0,4.0,72,0.00,,,0.01,0,WeatherCatV1.21B27,2013-09-14 04:14:00,
2013-09-13 21:17:00,57.8,48.1,29.79,WNW,288,0.0,5.0,70,0.00,,,0.01,0,WeatherCatV1.21B27,2013-09-14 04:17:00,
2013-09-13 21:22:00,57.8,48.1,29.79,WNW,288,3.0,3.0,70,0.00,,,0.01,0,WeatherCatV1.21B27,2013-09-14 04:22:00,
2013-09-13 21:27:00,57.8,48.1,29.79,WNW,288,0.0,0.0,70,0.00,,,0.01,0,WeatherCatV1.21B27,2013-09-14 04:27:00,
2013-09-13 21:32:00,57.8,47.7,29.80,WNW,288,3.0,4.0,69,0.00,,,0.01,0,WeatherCatV1.21B27,2013-09-14 04:32:00,
2013-09-13 21:34:00,57.8,47.7,29.80,WNW,288,2.0,4.0,69,0.00,,,0.01,0,WeatherCatV1.21B27,2013-09-14 04:34:00,
2013-09-13 21:39:00,57.8,47.7,29.80,WNW,288,0.0,2.0,69,0.00,,,0.01,0,WeatherCatV1.21B27,2013-09-14 04:39:00,
2013-09-13 21:44:00,58.0,47.9,29.80,WNW,288,0.0,0.0,69,0.00,,,0.01,0,WeatherCatV1.21B27,2013-09-14 04:44:00,
2013-09-13 21:49:00,58.0,47.9,29.80,WNW,288,0.0,0.0,69,0.00,,,0.01,0,WeatherCatV1.21B27,2013-09-14 04:49:00,
2013-09-13 21:54:00,58.0,47.5,29.80,WNW,288,0.0,0.0,68,0.00,,,0.01,0,WeatherCatV1.21B27,2013-09-14 04:54:00,
2013-09-13 21:59:00,58.0,47.5,29.81,WNW,288,0.0,0.0,68,0.00,,,0.01,0,WeatherCatV1.21B27,2013-09-14 04:59:00,
2013-09-13 22:04:00,57.8,47.3,29.81,WNW,288,0.0,0.0,68,0.00,,,0.01,0,WeatherCatV1.21B27,2013-09-14 05:04:00,
2013-09-13 22:09:00,57.8,47.3,29.81,WNW,288,0.0,0.0,68,0.00,,,0.01,0,WeatherCatV1.21B27,2013-09-14 05:09:00,
2013-09-13 22:14:00,57.8,47.3,29.76,WNW,288,0.0,0.0,68,0.00,,,0.01,0,WeatherCatV1.21B27,2013-09-14 05:14:00,
2013-09-13 22:19:00,57.6,47.1,29.76,WNW,288,0.0,0.0,68,0.00,,,0.01,0,WeatherCatV1.21B27,2013-09-14 05:19:00,
2013-09-13 22:24:00,57.6,47.1,29.76,WNW,288,0.0,0.0,68,0.00,,,0.01,0,WeatherCatV1.21B27,2013-09-14 05:24:00,
2013-09-13 22:29:00,57.5,47.0,29.76,WNW,288,0.0,0.0,68,0.00,,,0.01,0,WeatherCatV1.21B27,2013-09-14 05:29:00,
2013-09-13 22:34:00,57.5,46.2,29.76,WNW,288,0.0,3.0,66,0.00,,,0.01,0,WeatherCatV1.21B27,2013-09-14 05:34:00,
2013-09-13 22:39:00,57.3,46.0,29.76,WNW,288,0.0,0.0,66,0.00,,,0.01,0,WeatherCatV1.21B27,2013-09-14 05:39:00,
2013-09-13 22:44:00,57.3,46.8,29.77,WNW,288,0.0,0.0,68,0.00,,,0.01,0,WeatherCatV1.21B27,2013-09-14 05:44:00,
2013-09-13 22:49:00,57.3,46.8,29.77,WNW,288,0.0,0.0,68,0.00,,,0.01,0,WeatherCatV1.21B27,2013-09-14 05:49:00,
2013-09-13 22:54:00,57.3,46.4,29.77,WNW,288,0.0,0.0,67,0.00,,,0.01,0,WeatherCatV1.21B27,2013-09-14 05:54:00,
2013-09-13 22:59:00,57.2,45.5,29.77,WNW,288,0.0,0.0,65,0.00,,,0.01,0,WeatherCatV1.21B27,2013-09-14 05:59:00,
2013-09-13 23:04:00,57.2,44.7,29.77,WNW,288,2.0,3.0,63,0.00,,,0.01,0,WeatherCatV1.21B27,2013-09-14 06:04:00,
2013-09-13 23:09:00,57.3,42.7,29.77,WNW,283,2.0,3.0,58,0.00,,,0.01,0,WeatherCatV1.21B27,2013-09-14 06:09:00,
2013-09-13 23:14:00,57.5,42.4,29.76,West,277,3.0,4.0,57,0.00,,,0.01,0,WeatherCatV1.21B27,2013-09-14 06:14:00,
2013-09-13 23:19:00,57.6,42.0,29.76,West,277,0.0,3.0,56,0.00,,,0.01,0,WeatherCatV1.21B27,2013-09-14 06:19:00,
2013-09-13 23:24:00,57.8,41.7,29.76,West,277,0.0,0.0,55,0.00,,,0.01,0,WeatherCatV1.21B27,2013-09-14 06:24:00,
2013-09-13 23:29:00,57.8,41.7,29.76,West,277,0.0,0.0,55,0.00,,,0.01,0,WeatherCatV1.21B27,2013-09-14 06:29:00,
2013-09-13 23:34:00,57.8,41.3,29.76,West,277,0.0,0.0,54,0.00,,,0.01,0,WeatherCatV1.21B27,2013-09-14 06:34:00,
2013-09-13 23:39:00,57.8,42.7,29.76,West,277,0.0,0.0,57,0.00,,,0.01,0,WeatherCatV1.21B27,2013-09-14 06:39:00,
2013-09-13 23:44:00,57.8,43.1,29.76,West,277,0.0,0.0,58,0.00,,,0.01,0,WeatherCatV1.21B27,2013-09-14 06:44:00,
2013-09-13 23:49:00,57.6,42.5,29.76,West,277,0.0,0.0,57,0.00,,,0.01,0,WeatherCatV1.21B27,2013-09-14 06:49:00,
2013-09-13 23:54:00,57.5,42.4,29.76,West,277,0.0,0.0,57,0.00,,,0.01,0,WeatherCatV1.21B27,2013-09-14 06:54:00,
2013-09-13 23:59:00,57.5,43.3,29.75,West,277,0.0,0.0,59,0.00,,,0.01,0,WeatherCatV1.21B27,2013-09-14 06:59:00,